{"data":{"norad_id":69428,"intl_designator":"2026-126J","name":"STARLINK-37834","alt_names":[],"object_type":"PAYLOAD","status":"ACTIVE","operator":null,"country":"US","launch_date":"2026-06-07","launch_site_code":"AFWTR","launch_vehicle":null,"mission":null,"orbit_class":"UNKNOWN","rcs_meters":null,"size_class":null,"mass_kg":null,"dimensions":null,"purposes":["comms"],"wikipedia_slug":null,"has_3d_model":false,"image_url":null,"decayed_at":null,"tle_current":{"epoch":"2026-09-19T22:03:49.413024Z","epoch_age_seconds":76953,"freshness":"FRESH","line1":"1 69428U 26126J   26262.91932191  .00017630  00000+0  54678-3 0  9998","line2":"2 69428  97.2887 124.1391 0001498  85.8762 274.2652 15.33466335 17433","mean_motion":15.33466335,"eccentricity":0.0001498,"inclination_deg":97.2887,"raan_deg":124.1391,"arg_perigee_deg":85.8762,"mean_anomaly_deg":274.2652,"bstar":0.00054678,"rev_number":1743,"period_min":93.904898146981,"perigee_km":464.4545234833,"apogee_km":466.5048710458,"semimajor_km":6843.6166972646,"source":"CELESTRAK","updated_at":"2026-09-20T09:00:44.195813Z"}}}